Date String (YYYY-MM-DD hh:mm:ss) UTC,Instrument flags,Ambient pressure (hPa),Sample flow (lpm),Bypass flow (lpm),Sample temperature (°C),Ambient temperature (°C),ASC tube jacket temperature (°C),LED temperature (°C),Box temperature (°C),Sample RH (%),Span deviation,Mass concentration (μg/m³),Mass concentration (μg/m³),Mass concentration (μg/m³)
DateTimeUTC,F1_M11,P_M11,Q1_M11,Q2_M11,T1_M11,T2_M11,T3_M11,T4_M11,T5_M11,U1_M11,ZSPAN_M11,X2_M11,X0_M11,X1_M11
2021-09-05 14:00:00,,0831.3,5.01,0.00,30.6,29.8,00.0,39.7,32.3,09.6,0003.1,0013.00,0020.03,0012.25
2021-09-05 14:01:00,,0831.3,5.00,0.00,30.7,29.8,00.0,39.7,32.4,09.3,0002.9,0012.96,0020.07,0012.22
2021-09-05 14:02:00,,0831.3,5.00,0.00,30.7,29.8,00.0,39.7,32.4,09.4,0002.7,0012.90,0019.97,0012.17
2021-09-05 14:03:00,,0831.3,5.00,0.00,30.7,29.8,00.0,39.8,32.4,09.7,0002.5,0012.86,0019.27,0012.12
2021-09-05 14:04:00,,0831.3,5.00,0.00,30.7,29.8,00.0,39.8,32.4,10.1,0002.6,0012.80,0019.26,0012.06
2021-09-05 14:05:00,,0831.3,5.00,0.00,30.7,29.0,00.0,39.8,32.2,10.6,0002.8,0012.75,0019.31,0012.02
2021-09-05 14:06:00,,0831.3,5.01,0.00,30.6,27.2,00.0,39.7,31.7,11.1,0002.6,0012.65,0019.23,0011.95
2021-09-05 14:07:00,,0831.3,5.01,0.00,30.4,27.0,00.0,39.7,31.7,11.4,0002.6,0012.62,0018.45,0011.93
2021-09-05 14:08:00,,0831.2,4.99,0.00,30.4,27.4,00.0,39.6,31.7,11.3,0003.1,0012.56,0018.36,0011.90
2021-09-05 14:09:00,,0831.2,5.00,0.00,30.3,27.7,00.0,39.6,31.7,12.0,0003.4,0012.50,0018.12,0011.88
2021-09-05 14:10:00,,0831.2,5.00,0.00,30.3,28.1,00.0,39.6,31.7,12.7,0003.1,0012.45,0017.98,0011.83
2021-09-05 14:11:00,,0831.2,5.01,0.00,30.3,28.3,00.0,39.5,31.8,12.5,0002.4,0012.43,0017.71,0011.80
2021-09-05 14:12:00,,0831.3,5.00,0.00,30.3,28.5,00.0,39.5,31.9,12.2,0002.2,0012.37,0017.46,0011.74
2021-09-05 14:13:00,,0831.3,5.01,0.00,30.3,28.7,00.0,39.5,31.9,11.6,0002.2,0012.31,0017.36,0011.69
2021-09-05 14:14:00,,0831.3,4.98,0.00,30.3,28.9,00.0,39.5,31.9,11.5,0002.2,0012.21,0017.20,0011.62
2021-09-05 14:15:00,,0831.3,5.01,0.00,30.3,29.0,00.0,39.5,32.0,11.3,0002.5,0012.13,0017.06,0011.55
2021-09-05 14:16:00,,0831.3,4.99,0.00,30.3,29.1,00.0,39.5,32.0,10.8,0002.7,0012.08,0017.03,0011.50
2021-09-05 14:17:00,,0831.4,4.99,0.00,30.3,29.1,00.0,39.5,32.0,10.5,0003.2,0012.04,0016.60,0011.47
2021-09-05 14:18:00,,0831.4,4.99,0.00,30.3,29.2,00.0,39.5,32.0,10.0,0003.5,0012.05,0016.39,0011.47
2021-09-05 14:19:00,,0831.4,5.00,0.00,30.4,29.3,00.0,39.5,32.1,09.9,0003.5,0012.09,0016.53,0011.50
2021-09-05 14:20:00,,0831.4,4.99,0.00,30.4,29.3,00.0,39.5,32.1,09.8,0003.6,0012.14,0017.21,0011.52
2021-09-05 14:21:00,,0831.4,5.01,0.00,30.4,29.4,00.0,39.5,32.1,10.2,0003.6,0012.15,0018.27,0011.54
2021-09-05 14:22:00,,0831.4,5.00,0.00,30.4,29.4,00.0,39.5,32.1,09.9,0003.5,0012.16,0018.70,0011.55
2021-09-05 14:23:00,,0831.4,4.99,0.00,30.4,29.5,00.0,39.5,32.2,09.4,0003.7,0012.22,0018.92,0011.59
2021-09-05 14:24:00,,0831.4,5.00,0.00,30.5,29.5,00.0,39.5,32.2,09.4,0003.5,0012.32,0019.12,0011.65
2021-09-05 14:25:00,,0831.4,5.00,0.00,30.5,29.6,00.0,39.5,32.2,09.6,0003.3,0012.43,0019.79,0011.74
2021-09-05 14:26:00,,0831.5,5.00,0.00,30.5,29.6,00.0,39.5,32.2,09.5,0002.9,0012.48,0020.47,0011.81
2021-09-05 14:27:00,,0831.4,5.01,0.00,30.5,29.6,00.0,39.6,32.2,09.3,0002.6,0012.50,0020.43,0011.86
2021-09-05 14:28:00,,0831.4,4.99,0.00,30.6,29.7,00.0,39.6,32.3,09.1,0002.2,0012.55,0020.66,0011.88
2021-09-05 14:29:00,,0831.5,4.99,0.00,30.6,29.7,00.0,39.6,32.3,09.0,0002.2,0012.58,0020.70,0011.90
2021-09-05 14:30:00,,0831.4,5.01,0.00,30.6,29.7,00.0,39.6,32.3,08.7,0002.2,0012.62,0021.28,0011.92
2021-09-05 14:31:00,,0831.4,5.00,0.00,30.6,29.6,00.0,39.6,32.3,09.1,0002.2,0012.64,0021.61,0011.95
2021-09-05 14:32:00,,0831.4,5.01,0.00,30.5,28.0,00.0,39.6,31.9,09.1,0002.2,0012.66,0020.96,0011.96
2021-09-05 14:33:00,,0831.4,5.00,0.00,30.4,26.7,00.0,39.6,31.6,09.3,0002.3,0012.72,0020.91,0012.00
2021-09-05 14:34:00,,0831.4,5.00,0.00,30.3,26.9,00.0,39.5,31.6,08.5,0002.1,0012.75,0021.10,0012.03
2021-09-05 14:35:00,,0831.4,5.00,0.00,30.2,27.3,00.0,39.5,31.7,08.7,0002.4,0012.74,0021.02,0012.05
2021-09-05 14:36:00,,0831.5,4.99,0.00,30.2,27.7,00.0,39.4,31.7,09.1,0002.6,0012.74,0020.63,0012.04
2021-09-05 14:37:00,,0831.5,5.00,0.00,30.2,28.0,00.0,39.4,31.7,08.9,0002.9,0012.79,0019.97,0012.07
2021-09-05 14:38:00,,0831.5,5.00,0.00,30.2,28.3,00.0,39.4,31.8,09.0,0003.1,0012.85,0020.01,0012.09
2021-09-05 14:39:00,,0831.5,5.01,0.00,30.2,28.5,00.0,39.4,31.8,08.6,0003.4,0012.91,0020.03,0012.11
2021-09-05 14:40:00,,0831.5,4.99,0.00,30.2,28.7,00.0,39.4,31.9,09.0,0003.4,0012.90,0019.97,0012.11
2021-09-05 14:41:00,,0831.5,5.01,0.00,30.2,28.8,00.0,39.4,31.9,09.2,0003.5,0012.88,0019.16,0012.12
2021-09-05 14:42:00,,0831.5,5.00,0.00,30.2,29.0,00.0,39.4,31.9,09.1,0003.4,0012.89,0018.38,0012.13
2021-09-05 14:43:00,,0831.5,5.01,0.00,30.3,29.1,00.0,39.4,32.0,08.9,0003.4,0012.90,0018.12,0012.16
2021-09-05 14:44:00,,0831.5,5.00,0.00,30.3,29.2,00.0,39.4,32.0,08.6,0003.6,0012.89,0018.04,0012.15
2021-09-05 14:45:00,,0831.5,4.99,0.00,30.3,29.2,00.0,39.4,32.0,08.8,0003.7,0012.87,0017.77,0012.16
2021-09-05 14:46:00,,0831.5,4.99,0.00,30.3,29.3,00.0,39.4,32.1,08.7,0003.8,0012.87,0017.76,0012.17
2021-09-05 14:47:00,,0831.6,5.01,0.00,30.4,29.4,00.0,39.4,32.1,08.5,0003.7,0012.86,0019.01,0012.19
2021-09-05 14:48:00,,0831.6,4.98,0.00,30.4,29.4,00.0,39.4,32.1,08.5,0003.6,0012.83,0019.48,0012.17
2021-09-05 14:49:00,,0831.6,5.02,0.00,30.4,29.5,00.0,39.4,32.2,08.7,0003.8,0012.74,0019.25,0012.13
2021-09-05 14:50:00,,0831.7,5.00,0.00,30.4,29.5,00.0,39.4,32.2,08.2,0003.6,0012.65,0019.15,0012.08
2021-09-05 14:51:00,,0831.7,5.00,0.00,30.4,29.1,00.0,39.5,32.1,08.7,0003.6,0012.62,0019.61,0012.05
2021-09-05 14:52:00,,0831.6,5.00,0.00,30.3,27.3,00.0,39.4,31.7,08.8,0003.6,0012.56,0019.67,0012.02
2021-09-05 14:53:00,,0831.7,5.01,0.00,30.2,26.6,00.0,39.4,31.4,09.3,0003.2,0012.55,0019.90,0012.01
2021-09-05 14:54:00,,0831.6,5.00,0.00,30.1,26.9,00.0,39.4,31.5,12.2,0003.1,0012.49,0019.93,0011.96
2021-09-05 14:55:00,,0831.7,5.00,0.00,30.1,27.3,00.0,39.3,31.5,12.3,0002.8,0012.43,0019.74,0011.88
2021-09-05 14:56:00,,0831.7,5.00,0.00,30.0,27.7,00.0,39.3,31.6,12.0,0002.6,0012.40,0019.72,0011.82
2021-09-05 14:57:00,,0831.7,5.00,0.00,30.0,28.0,00.0,39.2,31.6,10.8,0002.4,0012.37,0019.70,0011.75
2021-09-05 14:58:00,,0831.6,5.01,0.00,30.1,28.3,00.0,39.2,31.7,09.0,0002.4,0012.35,0018.34,0011.72
2021-09-05 14:59:00,,0831.7,4.99,0.00,30.1,28.5,00.0,39.2,31.7,08.8,0002.0,0012.32,0017.87,0011.69
